Jordan, MT

6:36 AM MST on December 04, 2016 (GMT -0700)
Jordan

Weather History for KJDN - October, 2013

Change the Weather History Date:

Sunday, October 6, 2013

  Actual Average Record
Temperature  
Mean Temperature 53 °F 48 °F  
Max Temperature 74 °F 63 °F 91 °F (1905)
Min Temperature 32 °F 33 °F 8 °F (1952)
Degree Days  
Heating Degree Days 12 17  
Month to date heating degree days 122 95  
Since 1 July heating degree days 283 421  
Cooling Degree Days 0 0  
Month to date cooling degree days 0 0  
Year to date cooling degree days 520 420  
Growing Degree Days 4 (Base 50)    
Moisture  
Dew Point 30 °F    
Average Humidity 51    
Maximum Humidity 82    
Minimum Humidity 20    
Precipitation  
Precipitation 0.00 in 0.03 in 0.97 in (1967)
Month to date precipitation 0.02 0.17  
Year to date precipitation 15.48 11.30  
Snow  
Snow 0.00 in - - ()
Month to date snowfall 0.0  
Since 1 July snowfall 0.0  
Since 1 September snowfall 0.0  
Snow Depth 0.00 in    
Sea Level Pressure  
Sea Level Pressure 30.07 in    
Wind  
Wind Speed 8 mph (WNW)    
Max Wind Speed 18 mph    
Max Gust Speed 24 mph    
T = Trace of Precipitation, MM = Missing Value Source: NWS Daily Summary

Daily Weather History Graph

Daily Weather History Graph

Search for Another Location

Airport or City:

Trip Planner

Search our weather history database for the weather conditions in past years. The results will help you decide how hot, cold, wet, or windy it might be!

Date:

Astronomy

Oct. 06, 2013 Rise Set
Actual Time 7:14 AM MDT 6:36 PM MDT
Civil Twilight 6:43 AM MDT 7:07 PM MDT
Nautical Twilight 6:07 AM MDT 7:42 PM MDT
Astronomical Twilight 5:32 AM MDT 8:18 PM MDT
Moon 9:11 AM MDT (10/6) 7:27 PM MDT (10/6)
Length of Visible Light 12h 23m
Length of Day
11h 22m
Waxing Crescent, 4% of the Moon is Illuminated
Oct 6
Waxing Crescent
Oct 11
First Quarter
Oct 18
Full
Oct 26
Last Quarter
Nov 3
New

Hourly Weather History & Observations

Time (MDT) Temp. Windchill Dew Point Humidity Pressure Visibility Wind Dir Wind Speed Gust Speed Precip Events Conditions
12:48 AM 34.0 °F 29.8 °F 28.0 °F 79% 30.13 in - West 4.6 mph - N/A   Unknown
1:48 AM 36.0 °F 33.3 °F 28.9 °F 76% 30.12 in - WNW 3.5 mph - N/A   Unknown
2:48 AM 35.1 °F 29.3 °F 28.9 °F 78% 30.12 in - West 6.9 mph - N/A   Unknown
3:48 AM 37.0 °F 31.6 °F 30.0 °F 76% 30.12 in - WNW 6.9 mph - N/A   Unknown
4:48 AM 39.0 °F 33.4 °F 30.9 °F 73% 30.12 in - West 8.1 mph - N/A   Unknown
5:48 AM 37.9 °F 32.7 °F 30.9 °F 76% 30.12 in - WNW 6.9 mph - N/A   Unknown
6:48 AM 37.9 °F 33.5 °F 30.9 °F 76% 30.14 in - WNW 5.8 mph - N/A   Unknown
7:48 AM 39.0 °F 34.0 °F 30.9 °F 73% 30.14 in - WNW 6.9 mph - N/A   Unknown
8:48 AM 48.0 °F - 33.1 °F 56% 30.14 in - West 6.9 mph - N/A   Unknown
9:48 AM 57.9 °F - 33.1 °F 39% 30.12 in - West 13.8 mph - N/A   Unknown
10:48 AM 64.0 °F - 32.0 °F 30% 30.12 in - WNW 15.0 mph - N/A   Unknown
11:48 AM 66.9 °F - 32.0 °F 27% 30.10 in - WNW 15.0 mph 23.0 mph N/A   Unknown
12:48 PM 69.1 °F - 33.1 °F 26% 30.08 in - WNW 15.0 mph 20.7 mph N/A   Unknown
1:48 PM 72.0 °F - 33.1 °F 24% 30.04 in - WNW 13.8 mph 20.7 mph N/A   Unknown
2:48 PM 73.0 °F - 33.1 °F 23% 30.03 in - NW 12.7 mph 20.7 mph N/A   Unknown
3:48 PM 73.9 °F - 30.0 °F 20% 30.01 in - West 12.7 mph - N/A   Unknown
4:48 PM 73.0 °F - 30.0 °F 20% 30.00 in - West 11.5 mph - N/A   Unknown
5:48 PM 72.0 °F - 28.0 °F 20% 30.00 in - WNW 9.2 mph - N/A   Unknown
6:48 PM 59.0 °F - 28.9 °F 32% 30.01 in - North - - N/A   Unknown
7:48 PM 51.1 °F - 28.9 °F 43% 30.03 in - Calm Calm - N/A   Unknown
8:48 PM 44.1 °F - 28.9 °F 55% 30.02 in - Calm Calm - N/A   Unknown
9:48 PM 45.0 °F - 28.9 °F 53% 29.99 in - Calm Calm - N/A   Unknown
10:48 PM 37.0 °F - 28.0 °F 70% 29.98 in - Calm Calm - N/A   Unknown
11:48 PM 37.0 °F 33.3 °F 28.0 °F 70% 29.96 in - WNW 4.6 mph - N/A   Unknown